Jordan, MT

2:20 AM MST on February 06, 2016 (GMT -0700)
Pines | | Change Station
CLOSE
Current Station
Personal Weather Station
Location: Jordan, MT
Elevation: 2293 ft
Nearby Weather Stations
Active Advisory: High Wind Warning

Elev 2293 ft 47.83 °N, 106.64 °W | Updated 7 seconds ago

Partly Cloudy
Partly Cloudy
40.8 °F
Feels Like 41 °F
N
0.9
Wind Variable Wind from ESE
Gusts 2.5 mph

Today
High -- | Low -- °F
--% Chance of Precip.
Yesterday
High -- | Low -- °F
Precip. -- in
Pressure 29.91 in
Visibility 10.0 miles
Clouds Few 12000 ft
Windchill 41 °F
Dew Point 25 °F
Humidity 53%
Rainfall 0.00 in
Snow Depth Not available.
7:27 AM 5:15 PM
Waning Crescent, 6% visible
METAR KGGW 060853Z AUTO 22007KT 10SM FEW120 02/M03 A2985 RMK AO2 SLP129 T00171033 56016
Pressure 29.91 in
Visibility 10.0 miles
Clouds Few 12000 ft
Windchill 41 °F
Dew Point 25 °F
Humidity 53%
Rainfall 0.00 in
Snow Depth Not available.
7:27 AM 5:15 PM
Waning Crescent, 6% visible
METAR KGGW 060853Z AUTO 22007KT 10SM FEW120 02/M03 A2985 RMK AO2 SLP129 T00171033 56016

10-Day Weather Forecast

Almanac

Astronomy

Feb. 06, 2016 Rise Set
Actual Time
Civil Twilight
Nautical Twilight
Astronomical Twilight
Moon
Length of Visible Light
Length of Day
Tomorrow will be .
, % of the Moon is Illuminated

Today's Extremes

State Highs State Lows

Community

WunderPhotos

Upload Photos

1,890,933 photos uploaded!

WunderBlog® & News

Nearby

Air Quality

  Air Quality AQ Index Pollutant
Not available.

Snow Depth

Station Depth Elevation

Earthquake Activity

City Distance Mag. Time & Date
Minimum magnitude displayed is 2.5.

Coastal Water Temperatures

Place Temperature

Stations

Nearby Weather Stations

Station Location Temp. Windchill Dew Point Humidity Wind Precip. Elev Updated Type
                   

Watches & Warnings

High Wind Warning
Issued: 2:34 PM MST Feb. 5, 2016 – National Weather Service

... High Wind Warning in effect from 5 am to 11 PM MST Saturday...

The National Weather Service in Glasgow has issued a High Wind
Warning... which is in effect from 5 am to 11 PM MST Saturday. The
high wind watch is no longer in effect.

* Winds... west at 30 to 40 mph. Gusts up to 65 mph.

* Timing... winds will begin increasing early Saturday morning
and continue through the day.

* Impacts... the strong winds may make travel difficult
especially for high profile vehicles on north-south oriented
roads.

Precautionary/preparedness actions...

A High Wind Warning means a hazardous high wind event is expected
or occurring. Sustained wind speeds of at least 40 mph or gusts
of 58 mph or more can lead to property damage.